Weather History for Beach, ND

Change the Weather History Date:

Wednesday, November 23, 2011

  Actual Average (KGDV) Record (KGDV)
Temperature  
Mean Temperature 47 °F -  
Max Temperature 62 °F 35 °F 57 °F (2005)
Min Temperature 32 °F 18 °F -11 °F (2010)
Degree Days  
Heating Degree Days 18    
Moisture  
Dew Point 26 °F    
Average Humidity 50    
Maximum Humidity 80    
Minimum Humidity 22    
Precipitation  
Precipitation 0.00 in - - ()
Sea Level Pressure  
Sea Level Pressure 29.82 in    
Wind  
Wind Speed 12 mph (SSW)    
Max Wind Speed 17 mph    
Max Gust Speed 23 mph    
Visibility 10 miles    
Events      
Averages and records for this station are not official NWS values.
T = Trace of Precipitation, MM = Missing Value Source: NWS Daily Summary

Daily Weather History Graph

Daily Weather History Graph

Search for Another Location

Airport:

Trip Planner

Search our weather history database for the weather conditions in past years. The results will help you decide how hot, cold, wet, or windy it might be!

Date:

Astronomy

Nov. 23, 2011 Rise Set
Actual Time 7:10 AM MST 4:14 PM MST
Civil Twilight 6:36 AM MST 4:48 PM MST
Nautical Twilight 5:58 AM MST 5:25 PM MST
Astronomical Twilight 5:22 AM MST 6:01 PM MST
Moon 5:14 AM MST (11/23) 2:58 PM MST (11/23)
Length of Visible Light 10h 11m
Length of Day
9h 04m
Waning Crescent, 3% of the Moon is Illuminated
Nov 23
Waning Crescent
Nov 24
New
Dec 2
First Quarter
Dec 10
Full
Dec 17
Last Quarter

Hourly Weather History & Observations

Time (MST) Temp. Windchill Dew Point Humidity Pressure Visibility Wind Dir Wind Speed Gust Speed Precip Events Conditions
12:15 AM 37.4 °F 28.9 °F 24.8 °F 60% 29.90 in 10.0 mi WSW 13.8 mph - N/A   Clear
12:35 AM 37.4 °F 29.3 °F 24.8 °F 60% 29.89 in 10.0 mi SW 12.7 mph - N/A   Clear
12:55 AM 39.2 °F 31.2 °F 24.8 °F 56% 29.90 in 10.0 mi SW 13.8 mph - N/A   Clear
1:35 AM 39.2 °F 31.2 °F 24.8 °F 56% 29.89 in 10.0 mi SW 13.8 mph - N/A   Clear
1:55 AM 39.2 °F 31.6 °F 24.8 °F 56% 29.89 in 10.0 mi SW 12.7 mph - N/A   Clear
2:15 AM 39.2 °F 30.8 °F 24.8 °F 56% 29.90 in 10.0 mi WSW 15.0 mph - N/A   Clear
2:35 AM 41.0 °F 32.8 °F 24.8 °F 53% 29.90 in 10.0 mi SW 16.1 mph - N/A   Clear
2:55 AM 39.2 °F 30.8 °F 24.8 °F 56% 29.89 in 10.0 mi SW 15.0 mph - N/A   Clear
3:15 AM 39.2 °F 30.2 °F 24.8 °F 56% 29.89 in 10.0 mi SW 17.3 mph 20.7 mph N/A   Clear
3:35 AM 39.2 °F 30.2 °F 24.8 °F 56% 29.88 in 10.0 mi SW 17.3 mph 23.0 mph N/A   Clear
3:55 AM 39.2 °F 31.6 °F 24.8 °F 56% 29.89 in 10.0 mi SW 12.7 mph - N/A   Clear
4:15 AM 39.2 °F 31.2 °F 24.8 °F 56% 29.89 in 10.0 mi SW 13.8 mph - N/A   Clear
4:35 AM 41.0 °F 33.5 °F 24.8 °F 53% 29.88 in 10.0 mi SW 13.8 mph - N/A   Clear
5:15 AM 39.2 °F 30.8 °F 24.8 °F 56% 29.88 in 10.0 mi SW 15.0 mph - N/A   Clear
5:35 AM 39.2 °F 31.2 °F 24.8 °F 56% 29.88 in 10.0 mi SW 13.8 mph - N/A   Clear
5:55 AM 39.2 °F 31.6 °F 24.8 °F 56% 29.87 in 10.0 mi WSW 12.7 mph - N/A   Clear
6:35 AM 39.2 °F 33.0 °F 24.8 °F 56% 29.87 in 10.0 mi SW 9.2 mph - N/A   Clear
6:55 AM 35.6 °F 28.0 °F 24.8 °F 65% 29.87 in 10.0 mi SSW 10.4 mph - N/A   Clear
7:15 AM 35.6 °F 27.5 °F 24.8 °F 65% 29.87 in 10.0 mi SSW 11.5 mph - N/A   Clear
7:35 AM 35.6 °F 29.9 °F 26.6 °F 70% 29.87 in 10.0 mi South 6.9 mph - N/A   Clear
7:55 AM 32.0 °F 26.4 °F 26.6 °F 80% 29.87 in 10.0 mi SSE 5.8 mph - N/A   Clear
8:15 AM 35.6 °F 29.2 °F 26.6 °F 70% 29.86 in 10.0 mi South 8.1 mph - N/A   Clear
8:35 AM 41.0 °F 33.9 °F 26.6 °F 57% 29.86 in 10.0 mi SSW 12.7 mph - N/A   Clear
8:55 AM 44.6 °F 38.4 °F 26.6 °F 49% 29.85 in 10.0 mi SSW 12.7 mph - N/A   Clear
9:15 AM 46.4 °F 40.7 °F 26.6 °F 46% 29.85 in 10.0 mi SSW 12.7 mph - N/A   Clear
9:35 AM 50.0 °F - 26.6 °F 40% 29.85 in 10.0 mi South 10.4 mph - N/A   Clear
9:55 AM 51.8 °F - 26.6 °F 38% 29.84 in 10.0 mi SSW 10.4 mph - N/A   Clear
10:15 AM 53.6 °F - 28.4 °F 38% 29.84 in 10.0 mi South 12.7 mph - N/A   Clear
10:35 AM 50.0 °F - 28.4 °F 43% 29.84 in 10.0 mi South 10.4 mph - N/A   Clear
10:55 AM 55.4 °F - 26.6 °F 33% 29.82 in 10.0 mi South 10.4 mph - N/A   Clear
11:15 AM 57.2 °F - 26.6 °F 31% 29.81 in 10.0 mi SSW 15.0 mph - N/A   Partly Cloudy
11:35 AM 59.0 °F - 24.8 °F 27% 29.80 in 10.0 mi SSW 15.0 mph 18.4 mph N/A   Clear
11:55 AM 60.8 °F - 26.6 °F 27% 29.79 in 10.0 mi SSW 13.8 mph - N/A   Clear
12:15 PM 62.6 °F - 26.6 °F 26% 29.78 in 10.0 mi SSW 17.3 mph - N/A   Clear
12:35 PM 62.6 °F - 24.8 °F 24% 29.78 in 10.0 mi SSW 15.0 mph 20.7 mph N/A   Clear
12:55 PM 62.6 °F - 23.0 °F 22% 29.77 in 10.0 mi SW 17.3 mph 20.7 mph N/A   Clear
1:15 PM 62.6 °F - 24.8 °F 24% 29.77 in 10.0 mi SW 16.1 mph 21.9 mph N/A   Clear
1:35 PM 62.6 °F - 24.8 °F 24% 29.76 in 10.0 mi SW 15.0 mph 18.4 mph N/A   Clear
1:55 PM 62.6 °F - 24.8 °F 24% 29.76 in 10.0 mi SSW 10.4 mph - N/A   Clear
2:15 PM 59.0 °F - 24.8 °F 27% 29.75 in 10.0 mi SSW 11.5 mph - N/A   Clear
2:35 PM 55.4 °F - 28.4 °F 36% 29.76 in 10.0 mi South 8.1 mph - N/A   Clear
2:55 PM 55.4 °F - 30.2 °F 38% 29.75 in 10.0 mi South 9.2 mph - N/A   Clear
3:15 PM 55.4 °F - 30.2 °F 38% 29.74 in 10.0 mi South 6.9 mph - N/A   Clear
3:35 PM 53.6 °F - 32.0 °F 44% 29.73 in 10.0 mi South 4.6 mph - N/A   Clear
3:55 PM 50.0 °F - 30.2 °F 47% 29.73 in 10.0 mi South 6.9 mph - N/A   Clear
4:15 PM 44.6 °F 40.7 °F 28.4 °F 53% 29.73 in 10.0 mi SSE 6.9 mph - N/A   Clear
4:35 PM 41.0 °F 36.4 °F 28.4 °F 61% 29.73 in 10.0 mi SSE 6.9 mph - N/A   Clear
4:55 PM 41.0 °F 38.0 °F 28.4 °F 61% 29.73 in 10.0 mi SSE 4.6 mph - N/A   Clear
5:15 PM 41.0 °F 38.0 °F 28.4 °F 61% 29.73 in 10.0 mi SE 4.6 mph - N/A   Clear
5:35 PM 39.2 °F 35.0 °F 28.4 °F 65% 29.72 in 10.0 mi SE 5.8 mph - N/A   Clear
5:55 PM 37.4 °F 33.8 °F 28.4 °F 70% 29.72 in 10.0 mi SSE 4.6 mph - N/A   Clear
6:15 PM 37.4 °F 33.8 °F 26.6 °F 65% 29.71 in 10.0 mi SE 4.6 mph - N/A   Clear
6:35 PM 37.4 °F 31.4 °F 26.6 °F 65% 29.71 in 10.0 mi SSW 8.1 mph - N/A   Clear
6:55 PM 35.6 °F 29.9 °F 26.6 °F 70% 29.71 in 10.0 mi South 6.9 mph - N/A   Clear
7:35 PM 42.8 °F 36.2 °F 28.4 °F 57% 29.70 in 10.0 mi SSW 12.7 mph - N/A   Clear
8:15 PM 44.6 °F 37.2 °F 26.6 °F 49% 29.69 in 10.0 mi SSW 17.3 mph - N/A   Clear
8:35 PM 44.6 °F 38.1 °F 28.4 °F 53% 29.69 in 10.0 mi SSW 13.8 mph - N/A   Clear
8:55 PM 42.8 °F 35.8 °F 26.6 °F 53% 29.69 in 10.0 mi SSW 13.8 mph - N/A   Clear
9:15 PM 44.6 °F 37.8 °F 26.6 °F 49% 29.68 in 10.0 mi SSW 15.0 mph - N/A   Clear
9:35 PM 44.6 °F 37.8 °F 26.6 °F 49% 29.68 in 10.0 mi SSW 15.0 mph - N/A   Clear
9:55 PM 41.0 °F 33.9 °F 26.6 °F 57% 29.68 in 10.0 mi SSW 12.7 mph - N/A   Clear
10:15 PM 44.6 °F 38.1 °F 26.6 °F 49% 29.68 in 10.0 mi SW 13.8 mph - N/A   Clear
10:35 PM 44.6 °F 38.1 °F 26.6 °F 49% 29.67 in 10.0 mi SW 13.8 mph - N/A   Clear
10:55 PM 44.6 °F 39.7 °F 26.6 °F 49% 29.68 in 10.0 mi SW 9.2 mph - N/A   Clear
11:15 PM 44.6 °F 38.4 °F 24.8 °F 46% 29.68 in 10.0 mi SW 12.7 mph - N/A   Clear
11:35 PM 44.6 °F 38.8 °F 24.8 °F 46% 29.67 in 10.0 mi SW 11.5 mph - N/A   Clear
11:55 PM 44.6 °F 37.8 °F 24.8 °F 46% 29.67 in 10.0 mi SW 15.0 mph - N/A   Clear